Location: *
(46.1333°S, 161.2167°W)
Time: 04:33:46
(UTC+00:00)

Okean O Rocket - Pass Details

Date: 15 July 2020
Orbit: 623 x 644 km, 98.2° (Epoch: 10 August)

Event Time Altitude Azimuth Distance (km) Brightness Sun altitude
Rises 17:08:15 0° 331° (NNW) 2,949 4.9 -12.4°
Reaches altitude 10° 17:11:14 10° 308° (NW) 2,054 3.9 -11.9°
Maximum altitude 17:13:59 16° 270° (W) 1,700 3.2 -11.4°
Enters shadow 17:14:44 15° 258° (WSW) 1,732 3.2 -11.3°
